Regional Weather Roundup
Issued by NWS

Home | Current Version | Previous Version | Text Only | Print | Product List | Glossary On
Versions: 1 2 3 4 5 6 7 8 9 10 11 12 13 14 15 16 17 18 19 20 21 22 23 24 25 26 27
000
ASUS43 KDMX 202207
RWRIA

WEATHER ROUNDUP FOR IOWA
NATIONAL WEATHER SERVICE DES MOINES IA
500 PM CDT SUN APR 20 2014

NOTE: "FAIR" INDICATES FEW OR NO CLOUDS BELOW 12,000 FEET WITH NO
SIGNIFICANT WEATHER AND/OR OBSTRUCTIONS TO VISIBILITY.

* - THESE STATIONS ARE NOT NWS STATIONS...THUS NOT UNDER NWS
QUALITY CONTROL.  THEY ALSO DO NOT REPORT WEATHER SUCH
AS PRECIPITATION OR FOG.

IAZ001>003-012>014-020>022-031>034-043>046-202300-
   NORTHWEST IOWA

CITY           SKY/WX    TMP DP  RH WIND       PRES   REMARKS
CARROLL *      SUNNY     84  50  30 SW20      29.90F HX  82
CHEROKEE *     CLOUDY    81  52  36 SW13G20   29.89F HX  80
DENISON *      SUNNY     82  50  32 SW17      29.89F HX  81
LE MARS *      SUNNY     81  54  39 SW10G17   29.87F HX  80
ORANGE CITY *  SUNNY     82  48  30 S7G20     29.88F HX  81
SHELDON *      MOSUNNY   77  55  47 S13       29.89F
SIOUX CITY     CLOUDY    85  51  31 S14       29.85F HX  83
SPENCER        PTSUNNY   78  54  43 S15       29.90F
STORM LAKE *   SUNNY     79  52  38 VRB5G12   29.91F
$$

IAZ055>058-069>071-079>083-090>094-202300-
   SOUTHWEST IOWA

CITY           SKY/WX    TMP DP  RH WIND       PRES   REMARKS
ATLANTIC *     SUNNY     82  52  34 SW17G24   29.91F HX  81
AUDUBON *      MOSUNNY   82  43  24 S15G21    29.93S HX  80
CLARINDA *     SUNNY     82  52  34 S14G24    29.94F HX  81
COUNCIL BLFS * MOSUNNY   81  54  39 SW14      29.90S HX  80
CRESTON *      SUNNY     77  54  44 S18G25    29.96F
HARLAN  *      MOSUNNY   82  50  32 S22       29.93F HX  81
LAMONI         PTSUNNY   79  51  37 S16G23    29.98F
RED OAK *      PTSUNNY   82  54  36 S15G22    29.91F HX  81
SHENANDOAH *   MOSUNNY   82  54  36 S17G23    29.92S HX  81
$$

IAZ047>049-059>061-072>074-084-202300-
   CENTRAL IOWA

CITY           SKY/WX    TMP DP  RH WIND       PRES   REMARKS
AMES           MOSUNNY   80  53  39 S20G26    29.93F HX  80
ANKENY *       SUNNY     82  54  36 SW17G25   29.94S HX  81
CHARITON *     SUNNY     79  52  38 S20G25    29.98F
DES MOINES     PTSUNNY   83  52  34 SW12G24   29.94F HX  82
GRINNELL*      PTSUNNY   79  48  34 S18       29.97F
KNOXVILLE *    SUNNY     79  50  36 S17G25    29.97S
MARSHALLTOWN   PTSUNNY   79  53  40 S18G24    29.94F
NEWTON *       SUNNY     81  50  34 S16G26    29.96F HX  80
PELLA *        PTSUNNY   81  50  34 S13       29.98S HX  80
PERRY *          N/A     84  45  24 SW15      29.91F HX  82
$$

IAZ004>006-015-016-023>025-035-036-202300-
   NORTH CENTRAL IOWA

CITY           SKY/WX    TMP DP  RH WIND       PRES   REMARKS
ALGONA *       PTSUNNY   75  57  53 SE8       29.93F
CLARION *      SUNNY     75  61  60 E12G17    29.92F
ESTHERVILLE    MOSUNNY   74  55  51 S6        29.92F
FORT DODGE *   CLOUDY    81  55  41 SW10      29.91F HX  80
MASON CITY     PTSUNNY   68  57  68 E12       29.97S
FOREST CITY *  PTSUNNY   72  55  56 E10       29.95F
IOWA FALLS *     N/A     81  54  39 S15G21    29.94F HX  80
$$

IAZ007>011-017>019-026>030-037>042-050>054-066-202300-
   NORTHEAST IOWA

CITY           SKY/WX    TMP DP  RH WIND       PRES   REMARKS
CEDAR RAPIDS   PTSUNNY   80  46  30 S15       29.98F
CHARLES CITY * MOSUNNY   66  57  72 E8        29.97F
CLINTON *      MOSUNNY   79  43  27 S17       30.07S
DECORAH *      LGT RAIN  59  59 100 E7        29.99F
DUBUQUE        PTSUNNY   76  48  37 SW9       30.02S
MONTICELLO *   MOSUNNY   79  46  31 S13       30.00F
OELWEIN *      SUNNY    N/A N/A N/A E10       29.98F
WATERLOO       CLOUDY    78  52  40 MISG      29.95F
$$

IAZ064-065-067-068-078-202300-
   EAST CENTRAL IOWA

CITY           SKY/WX    TMP DP  RH WIND       PRES   REMARKS
DAVENPORT      MOSUNNY   80  43  26 S14       30.03F
IOWA CITY      PTSUNNY   81  47  30 SW13G22   30.00F HX  80
MT. PLEASANT * MOSUNNY   82  41  23 S17       30.00F HX  80
MUSCATINE *    SUNNY     82  46  28 SW16      30.00F HX  81
QUAD CITIES    MOSUNNY   81  45  28 SW7       30.00F HX  80
$$

IAZ062-063-075>077-085>089-095>099-202300-
   SOUTHEAST IOWA

CITY           SKY/WX    TMP DP  RH WIND       PRES   REMARKS
BURLINGTON     MOSUNNY   82  48  30 SW14      30.01F HX  81
FAIRFIELD *    SUNNY     79  48  34 SW16G24   30.01S
FORT MADISON * SUNNY     79  48  34 S12G17    30.03S
KEOKUK *       SUNNY     81  48  32 S14G21    30.01F HX  80
OSKALOOSA *      N/A     81  46  30 SW12G22   29.99F HX  80
CENTERVILLE *  SUNNY     77  50  38 SW14      30.02F
OTTUMWA        CLOUDY    80  47  31 SW16      29.99F
WASHINGTON *   SUNNY     81  48  32 SW13G22   30.00F HX  80
$$

ABBREVIATIONS USED IN REMARKS
   TC - TEMPERATURES IN CELSIUS
  WCI - WIND CHILL INDEX
   HX - HEAT INDEX
  VSB - VISIBILITY
$$




USA.gov is the U.S. government's official web portal to all federal, state and local government web resources and services.